Terminal Aerodrome Forecast
Issued by NWS Upton, NY

Home | Current Version | Previous Version | Text Only | Print | Product List | Glossary On
Versions: 1 2 3 4 5 6 7 8 9 10 11 12 13 14 15 16 17 18 19 20 21 22 23 24 25 26 27 28 29
000
FTUS41 KOKX 070535
TAFLGA
TAF
KLGA 070535Z 0706/0806 16008KT P6SM SCT007 BKN015
     FM070800 15007KT 4SM BR BKN007
     FM071200 16009KT 4SM BR SCT008 BKN015 BKN150
     FM071400 18011KT 6SM HZ VCSH SCT015 BKN050
     FM072000 20013KT P6SM BKN050
     FM080200 21010KT P6SM SCT050 BKN250=

USA.gov is the U.S. government's official web portal to all federal, state and local government web resources and services.